Location: Bédeille
(43.0872°N, 1.1041°E)
Time: 13:23:31
(UTC+00:00)

SKYMED 2 - Pass Details

Date: 03 February 2023
Orbit: 621 x 623 km, 97.9° (Epoch: 20 March)

Event Time Altitude Azimuth Distance (km) Brightness Sun altitude
Rises 17:54:23 0° 15° (NNE) 2,916 6.7 -8.5°
Reaches altitude 10° 17:56:36 10° 17° (NNE) 2,004 5.9 -8.9°
Maximum altitude 18:00:57 70° 102° (ESE) 666 3.5 -9.6°
Drops below altitude 10° 18:05:16 10° 186° (S) 1,986 6.4 -10.4°
Sets 18:07:27 0° 189° (S) 2,888 7.3 -10.8°
